• In Hungary
  • List of Countries
  • For 7 days
  • Water Temperature
  • Satellite Maps
  • Weather Map
  • News
  • Weather Widgets
  • user-avatar
    Login

    Hourly Weather El Quseir

    Today, 20 January, Saturday

    Time Temperature Precipitation Wind Pressure Humidity
    00:00 +14°C° 0 mm 6 mps 764 mmHg 55%
    01:00 +13°C° 0 mm 6 mps 764 mmHg 57%
    02:00 +13°C° 0 mm 6 mps 764 mmHg 60%
    03:00 +13°C° 0 mm 6 mps 764 mmHg 63%
    04:00 +11°C° 0 mm 6 mps 764 mmHg 65%
    05:00 +11°C° 0 mm 6 mps 765 mmHg 68%
    06:00 +13°C° 0 mm 5 mps 765 mmHg 65%
    07:00 +14°C° 0 mm 5 mps 765 mmHg 62%
    08:00 +15°C° 0 mm 5 mps 765 mmHg 58%
    09:00 +16°C° 0 mm 5 mps 765 mmHg 53%
    10:00 +17°C° 0 mm 5 mps 765 mmHg 48%
    11:00 +19°C° 0 mm 5 mps 765 mmHg 42%
    12:00 +20°C° 0 mm 4 mps 764 mmHg 41%
    13:00 +21°C° 0 mm 4 mps 764 mmHg 39%
    14:00 +21°C° 0 mm 4 mps 763 mmHg 38%
    15:00 +21°C° 0 mm 3 mps 763 mmHg 41%
    16:00 +20°C° 0 mm 3 mps 763 mmHg 44%
    17:00 +19°C° 0 mm 3 mps 763 mmHg 47%
    18:00 +18°C° 0 mm 2 mps 764 mmHg 53%
    19:00 +17°C° 0 mm 2 mps 764 mmHg 58%
    20:00 +16°C° 0 mm 2 mps 764 mmHg 64%
    21:00 +16°C° 0 mm 2 mps 764 mmHg 64%
    22:00 +15°C° 0 mm 2 mps 764 mmHg 65%
    23:00 +15°C° 0 mm 2 mps 764 mmHg 66%

    Tomorrow, 21 January, Sunday

    Time Temperature Precipitation Wind Pressure Humidity
    00:00 +15°C° 0 mm 2 mps 764 mmHg 64%
    01:00 +14°C° 0 mm 2 mps 764 mmHg 62%
    02:00 +14°C° 0 mm 2 mps 764 mmHg 60%
    03:00 +14°C° 0 mm 2 mps 764 mmHg 63%
    04:00 +14°C° 0 mm 1 mps 763 mmHg 66%
    05:00 +13°C° 0 mm 1 mps 763 mmHg 68%
    06:00 +15°C° 0 mm 1 mps 763 mmHg 63%
    07:00 +16°C° 0 mm 1 mps 763 mmHg 58%
    08:00 +19°C° 0 mm 1 mps 763 mmHg 54%
    09:00 +20°C° 0 mm 1 mps 763 mmHg 50%
    10:00 +22°C° 0 mm 1 mps 763 mmHg 46%
    11:00 +23°C° 0 mm 1 mps 763 mmHg 41%
    12:00 +24°C° 0 mm 2 mps 762 mmHg 40%
    13:00 +25°C° 0 mm 2 mps 761 mmHg 38%
    14:00 +25°C° 0 mm 2 mps 761 mmHg 36%
    15:00 +25°C° 0 mm 2 mps 761 mmHg 39%
    16:00 +24°C° 0 mm 2 mps 760 mmHg 42%
    17:00 +23°C° 0 mm 2 mps 760 mmHg 46%
    18:00 +21°C° 0 mm 2 mps 761 mmHg 51%
    19:00 +20°C° 0 mm 2 mps 761 mmHg 56%
    20:00 +20°C° 0 mm 1 mps 761 mmHg 61%
    21:00 +18°C° 0 mm 2 mps 761 mmHg 62%
    22:00 +18°C° 0 mm 2 mps 761 mmHg 62%
    23:00 +18°C° 0 mm 2 mps 761 mmHg 62%

    Day after tomorrow, 22 January, Monday

    Time Temperature Precipitation Wind Pressure Humidity
    00:00 +18°C° 0 mm 2 mps 761 mmHg 60%
    01:00 +18°C° 0 mm 1 mps 760 mmHg 58%
    02:00 +18°C° 0 mm 1 mps 760 mmHg 57%
    03:00 +18°C° 0 mm 1 mps 760 mmHg 54%
    04:00 +16°C° 0 mm 1 mps 759 mmHg 51%
    05:00 +16°C° 0 mm 1 mps 759 mmHg 49%
    06:00 +19°C° 0 mm 1 mps 759 mmHg 43%
    07:00 +20°C° 0 mm 1 mps 760 mmHg 37%
    08:00 +21°C° 0 mm 1 mps 760 mmHg 31%
    09:00 +23°C° 0 mm 1 mps 760 mmHg 27%
    10:00 +25°C° 0 mm 2 mps 760 mmHg 23%
    11:00 +26°C° 0 mm 2 mps 760 mmHg 18%
    12:00 +27°C° 0 mm 2 mps 759 mmHg 18%
    13:00 +27°C° 0 mm 3 mps 758 mmHg 17%
    14:00 +28°C° 0 mm 3 mps 758 mmHg 16%
    15:00 +27°C° 0 mm 3 mps 758 mmHg 19%
    16:00 +26°C° 0 mm 3 mps 758 mmHg 21%
    17:00 +25°C° 0 mm 3 mps 758 mmHg 24%
    18:00 +24°C° 0 mm 3 mps 759 mmHg 23%
    19:00 +22°C° 0 mm 3 mps 759 mmHg 23%
    20:00 +21°C° 0 mm 3 mps 760 mmHg 23%
    21:00 +20°C° 0 mm 3 mps 760 mmHg 26%
    22:00 +19°C° 0 mm 4 mps 760 mmHg 29%
    23:00 +19°C° 0 mm 5 mps 760 mmHg 33%

    23 January, Tuesday

    Time Temperature Precipitation Wind Pressure Humidity
    00:00 +17°C° 0 mm 5 mps 760 mmHg 37%
    01:00 +17°C° 0 mm 5 mps 760 mmHg 41%
    02:00 +16°C° 0 mm 6 mps 760 mmHg 46%
    03:00 +15°C° 0 mm 6 mps 760 mmHg 49%
    04:00 +15°C° 0 mm 6 mps 760 mmHg 53%
    05:00 +14°C° 0 mm 5 mps 760 mmHg 56%
    06:00 +15°C° 0 mm 5 mps 760 mmHg 56%
    07:00 +16°C° 0 mm 5 mps 761 mmHg 56%
    08:00 +16°C° 0 mm 5 mps 761 mmHg 55%
    09:00 +19°C° 0 mm 5 mps 761 mmHg 50%
    10:00 +20°C° 0 mm 5 mps 761 mmHg 45%
    11:00 +22°C° 0 mm 4 mps 761 mmHg 39%
    12:00 +22°C° 0 mm 4 mps 761 mmHg 37%
    13:00 +23°C° 0 mm 4 mps 760 mmHg 35%
    14:00 +23°C° 0 mm 4 mps 760 mmHg 33%
    15:00 +23°C° 0 mm 4 mps 760 mmHg 34%
    16:00 +22°C° 0 mm 4 mps 760 mmHg 36%
    17:00 +22°C° 0 mm 4 mps 760 mmHg 37%
    18:00 +21°C° 0 mm 4 mps 760 mmHg 41%
    19:00 +20°C° 0 mm 4 mps 761 mmHg 44%
    20:00 +18°C° 0 mm 4 mps 761 mmHg 48%
    21:00 +18°C° 0 mm 4 mps 761 mmHg 48%
    22:00 +17°C° 0 mm 4 mps 761 mmHg 48%
    23:00 +17°C° 0 mm 4 mps 761 mmHg 48%

    24 January, Wednesday

    Time Temperature Precipitation Wind Pressure Humidity
    00:00 +15°C° 0 mm 4 mps 761 mmHg 48%
    01:00 +15°C° 0 mm 5 mps 761 mmHg 48%
    02:00 +14°C° 0 mm 5 mps 761 mmHg 48%
    03:00 +14°C° 0 mm 5 mps 761 mmHg 49%
    04:00 +14°C° 0 mm 5 mps 761 mmHg 50%
    05:00 +13°C° 0 mm 5 mps 761 mmHg 51%
    06:00 +15°C° 0 mm 5 mps 761 mmHg 48%
    07:00 +16°C° 0 mm 5 mps 762 mmHg 45%
    08:00 +17°C° 0 mm 5 mps 762 mmHg 42%
    09:00 +19°C° 0 mm 5 mps 762 mmHg 40%
    10:00 +20°C° 0 mm 5 mps 762 mmHg 38%
    11:00 +21°C° 0 mm 5 mps 762 mmHg 36%
    12:00 +22°C° 0 mm 5 mps 761 mmHg 34%
    13:00 +22°C° 0 mm 5 mps 761 mmHg 33%
    14:00 +23°C° 0 mm 5 mps 760 mmHg 31%
    15:00 +22°C° 0 mm 5 mps 760 mmHg 35%
    16:00 +22°C° 0 mm 5 mps 760 mmHg 39%
    17:00 +21°C° 0 mm 6 mps 760 mmHg 43%
    18:00 +20°C° 0 mm 6 mps 760 mmHg 48%
    19:00 +19°C° 0 mm 6 mps 761 mmHg 53%
    20:00 +17°C° 0 mm 6 mps 761 mmHg 58%
    21:00 +17°C° 0 mm 6 mps 761 mmHg 59%
    22:00 +16°C° 0 mm 6 mps 761 mmHg 60%
    23:00 +16°C° 0 mm 6 mps 761 mmHg 61%

    25 January, Thursday

    Time Temperature Precipitation Wind Pressure Humidity
    00:00 +16°C° 0 mm 6 mps 761 mmHg 61%
    01:00 +15°C° 0 mm 6 mps 760 mmHg 61%
    02:00 +15°C° 0 mm 6 mps 760 mmHg 61%
    03:00 +14°C° 0 mm 6 mps 760 mmHg 60%
    04:00 +14°C° 0 mm 6 mps 760 mmHg 60%
    05:00 +14°C° 0 mm 6 mps 760 mmHg 59%
    06:00 +15°C° 0 mm 6 mps 760 mmHg 54%
    07:00 +16°C° 0 mm 6 mps 760 mmHg 49%
    08:00 +17°C° 0 mm 6 mps 761 mmHg 43%
    09:00 +19°C° 0 mm 6 mps 760 mmHg 38%
    10:00 +20°C° 0 mm 6 mps 760 mmHg 33%
    11:00 +22°C° 0 mm 6 mps 760 mmHg 27%
    12:00 +22°C° 0 mm 6 mps 760 mmHg 26%
    13:00 +23°C° 0 mm 7 mps 759 mmHg 25%
    14:00 +24°C° 0 mm 7 mps 759 mmHg 24%
    15:00 +23°C° 0 mm 7 mps 759 mmHg 28%
    16:00 +22°C° 0 mm 7 mps 759 mmHg 32%
    17:00 +22°C° 0 mm 8 mps 759 mmHg 36%
    18:00 +21°C° 0 mm 8 mps 760 mmHg 40%
    19:00 +20°C° 0 mm 8 mps 760 mmHg 43%
    20:00 +18°C° 0 mm 8 mps 761 mmHg 47%
    21:00 +17°C° 0 mm 8 mps 761 mmHg 49%
    22:00 +17°C° 0 mm 8 mps 761 mmHg 50%
    23:00 +16°C° 0 mm 8 mps 761 mmHg 51%
    Show more